Location: Howardton
(37.6292°N, 89.4645°W)
Time: 07:15:14
(UTC+00:00)

Daily predictions for brighter satellites

Satellite Brightness Start Highest point End
(mag) Time Altitude Azimuth Time Altitude Azimuth Time Altitude Azimuth
Cosmos 2208 Rocket 4.4 12:00:36 10° S 12:05:47 69° ESE 12:10:58 10° NNE
CZ-3C R/B 4.1 12:00:33 10° SW 12:06:10 30° SSE 12:34:09 10° ESE
Helios 1A Rocket 2.9 12:03:13 10° S 12:06:19 37° W 12:09:23 11° NNW
USA 290 3.8 12:03:45 10° S 12:06:45 39° ESE 12:09:47 10° NE
Cosmos 2322 Rocket 2.9 12:03:52 12° NW 12:08:22 34° WSW 12:13:22 10° SSW
Cosmos 1484 Rocket 2.7 12:06:02 10° N 12:09:15 41° WNW 12:12:25 10° SW
BREEZE M DEB (TANK) 3.4 12:19:32 12° NW 12:21:07 19° N 12:24:10 10° NE
Cosmos 1812 Rocket 3.6 12:17:01 10° NNW 12:21:17 57° W 12:25:31 10° S
Cosmos 1602 Rocket 4.1 12:17:28 10° SSW 12:21:36 38° WNW 12:25:44 10° N
Meteor 1-25 Rocket 4.3 12:17:42 10° S 12:23:27 86° W 12:29:19 10° N
Cosmos 2221 2.6 12:20:02 10° NNW 12:24:01 49° W 12:27:59 10° SSW
Cosmos 2322 4.2 12:19:38 10° NNW 12:25:16 64° ENE 12:30:53 10° SSE
Cosmos 1437 Rocket 2.6 12:24:02 10° NNW 12:27:26 53° W 12:30:49 10° S
IRIS 4.5 12:29:37 10° WSW 12:32:32 58° SSE 12:35:24 10° ENE
Okean 1-7 Rocket 4.0 12:29:01 10° SSW 12:33:16 42° W 12:37:32 10° N
Cosmos 1842 2.7 12:30:40 10° N 12:33:58 81° W 12:37:15 10° S
ATLAS 2AS CENTAUR R/B 3.4 12:29:10 10° WSW 12:35:22 32° NW 12:41:27 10° NNE
SL-4 R/B 2.3 12:34:20 10° WNW 12:37:17 34° SW 12:40:10 10° SSE
OAO 2 Rocket 3.8 12:32:18 10° W 12:37:25 59° S 12:42:27 10° ESE
Meteor 1-19 Rocket 4.5 12:33:20 10° NNW 12:39:05 57° W 12:44:57 10° S
Meteor 1-10 Rocket 4.5 12:34:54 10° NNW 12:40:44 60° W 12:46:32 10° S
ARIANE 5 R/B 2.6 12:36:29 10° NNE 12:41:44 88° WNW 12:46:56 10° SSW
Cosmos 2227 Rocket 2.3 22:59:38 10° NNW 23:05:12 56° ENE 23:10:43 10° SE
Hubble Space Telescope 2.8 23:03:30 10° SW 23:06:19 20° S 23:09:09 10° SE
Thor Agena Rocket 3.6 23:01:21 10° SSE 23:06:27 60° ENE 23:11:31 10° N
Meteor 1-25 Rocket 4.3 23:00:45 10° N 23:06:30 65° E 23:12:10 10° SSE
Cosmos 1697 Rocket 3.6 23:04:00 10° SW 23:09:25 50° WNW 23:14:52 10° NNE
Cosmos 372 Rocket 4.2 23:04:59 10° S 23:09:57 51° ESE 23:14:55 10° NNE
Cosmos 1898 Rocket 3.9 23:08:45 10° S 23:13:36 44° ESE 23:18:29 10° NNE
Cosmos 2333 Rocket 4.0 23:21:14 10° ESE 23:23:04 12° E 23:24:52 10° ENE
IGS 5A 4.1 23:20:05 10° S 23:23:57 57° W 23:27:53 10° NNW
SL-16 R/B 3.6 23:19:07 10° N 23:24:58 45° WNW 23:30:46 10° SW
Okean 1 4.0 23:22:27 10° SSE 23:25:32 27° E 23:28:36 10° NNE
Cosmos 1937 Rocket 3.9 23:22:14 10° S 23:27:05 42° ESE 23:31:56 10° NNE
Cosmos 2058 Rocket 3.4 23:24:35 10° SSE 23:28:51 46° E 23:33:08 10° NNE
USA 238 DEB 3.9 23:27:36 10° SW 23:33:31 61° NW 23:39:59 10° NNE
USA 238 3.9 23:27:41 10° SW 23:33:38 61° NW 23:40:07 10° NNE
CZ-2D R/B 2.6 23:33:15 10° SSE 23:36:20 62° ENE 23:39:27 10° N
Cosmos-2242 3.1 23:32:16 10° S 23:36:22 51° E 23:40:30 10° NNE
GEOS 3 Rocket 4.3 23:39:02 10° NNE 23:44:17 55° NW 23:49:29 10° SW
SL-24 R/B - RUBIN 2 4.1 23:39:35 10° SSW 23:45:09 64° ESE 23:49:23 15° NE
SAR-Lupe-4 3.5 23:43:57 10° SSE 23:47:30 87° W 23:51:03 10° NNW
Resurs 1-3 4.5 23:44:39 10° SE 23:48:10 25° ENE 23:51:42 10° NNE
Aureole 1 Rocket 4.0 23:46:35 10° SW 23:50:51 54° WNW 23:56:19 10° N
CZ-2D R/B 4.0 23:50:30 10° SE 23:54:18 35° ENE 23:58:04 10° N
Cosmos 2082 4.0 23:49:08 10° N 23:54:34 43° ENE 23:59:58 10° SE
ARIANE 5 R/B 2.7 23:49:33 10° S 23:54:36 75° WSW 23:59:44 10° NNW
